W8KHW Weather Reports


Display with metric or nautical units.
time (UTC)temp
F
wind
direction
speed
MPH
gust
MPH
rain 1hr
in
rain 24hr
in
rain mn
in
humidity
%
barometer
mb
20260502233500 46 100 1.0 6.0 0.00 0.01 0.00 55 1018.0
20260502232640 46 75 1.0 11.0 0.00 0.01 0.00 53 1017.8
20260502231820 46 235 2.0 6.0 0.00 0.01 0.00 54 1017.8
20260502231000 46 146 2.0 7.0 0.00 0.01 0.00 51 1017.7
20260502230140 47 177 1.0 5.0 0.00 0.01 0.00 57 1017.8
20260502225319 46 53 2.0 8.0 0.00 0.01 0.00 54 1017.7
20260502224459 47 86 2.0 7.0 0.00 0.01 0.00 52 1017.8
20260502223639 47 46 2.0 12.0 0.00 0.01 0.00 50 1017.4
20260502222819 47 39 2.0 9.0 0.00 0.01 0.00 52 1017.7
20260502221959 48 318 3.0 10.0 0.00 0.01 0.00 52 1017.8
20260502221138 47 282 2.0 9.0 0.00 0.01 0.00 51 1017.7
20260502220318 48 266 3.0 13.0 0.00 0.01 0.00 50 1017.6
20260502215458 47 257 3.0 8.0 0.00 0.01 0.00 48 1017.5
20260502214638 48 269 2.0 9.0 0.00 0.01 0.00 49 1017.6
20260502213817 48 341 3.0 13.0 0.00 0.01 0.00 49 1017.7
20260502212957 48 360 2.0 10.0 0.00 0.01 0.00 46 1017.5
20260502212137 49 269 2.0 9.0 0.00 0.01 0.00 49 1017.2
20260502211317 49 258 2.0 9.0 0.00 0.01 0.00 51 1017.3
20260502210457 48 246 3.0 11.0 0.00 0.01 0.00 48 1017.5
20260502205636 48 267 2.0 10.0 0.00 0.01 0.00 48 1017.5
20260502204816 49 318 2.0 13.0 0.00 0.01 0.00 49 1017.4
20260502203956 49 25 3.0 18.0 0.00 0.01 0.00 50 1017.4
20260502203136 49 266 3.0 9.0 0.00 0.01 0.00 51 1017.4
20260502202315 49 287 3.0 13.0 0.00 0.01 0.00 48 1017.6
20260502201455 49 252 3.0 9.0 0.00 0.01 0.00 50 1017.6
20260502200635 50 261 3.0 18.0 0.00 0.01 0.00 51 1017.5
20260502195814 49 30 3.0 18.0 0.00 0.01 0.00 46 1017.4
20260502194954 50 327 3.0 14.0 0.00 0.01 0.00 48 1017.7
20260502194134 48 284 2.0 9.0 0.00 0.01 0.00 48 1017.8
20260502193314 49 308 3.0 10.0 0.00 0.01 0.00 48 1017.8
20260502192453 50 250 3.0 15.0 0.00 0.01 0.00 45 1017.5
20260502191633 50 252 4.0 15.0 0.00 0.01 0.00 49 1018.0
20260502190813 48 244 3.0 11.0 0.00 0.01 0.00 50 1017.7
20260502185953 51 46 3.0 10.0 0.00 0.01 0.00 48 1018.0
20260502185133 49 20 4.0 17.0 0.00 0.01 0.00 51 1017.8
20260502184313 49 27 5.0 17.0 0.00 0.01 0.00 49 1017.9
20260502183452 49 29 3.0 15.0 0.00 0.01 0.00 49 1018.0
20260502182632 49 26 4.0 16.0 0.00 0.01 0.00 53 1018.0
20260502181812 49 269 3.0 10.0 0.00 0.01 0.00 48 1017.9
20260502180952 49 260 4.0 11.0 0.00 0.01 0.00 50 1018.0
20260502180132 49 269 4.0 12.0 0.00 0.01 0.00 53 1018.2
20260502170311 47 256 4.0 11.0 0.00 0.01 0.00 51 1018.3
20260502163810 48 41 3.0 13.0 0.00 0.01 0.00 49 1018.4
20260502162950 47 264 3.0 13.0 0.00 0.01 0.00 53 1018.4
20260502162130 48 19 4.0 13.0 0.00 0.01 0.00 53 1018.3
20260502161310 48 254 3.0 9.0 0.00 0.02 0.00 57 1018.8
20260502160450 47 29 4.0 12.0 0.00 0.02 0.00 54 1018.4
20260502152309 47 8 3.0 15.0 0.00 0.04 0.00 57 1018.7
20260502151449 47 333 3.0 10.0 0.00 0.05 0.00 61 1018.4
20260502150629 46 333 3.0 11.0 0.00 0.05 0.00 60 1018.5
20260502130125 42 53 3.0 13.0 0.00 0.09 0.00 75 1018.2
20260502123624 40 244 2.0 7.0 0.00 0.09 0.00 78 1018.1
20260502122804 39 240 2.0 6.0 0.00 0.09 0.00 79 1017.9
20260502121943 37 248 2.0 7.0 0.00 0.09 0.00 84 1018.0
20260502121123 36 215 2.0 6.0 0.00 0.09 0.00 92 1017.9
20260502120303 35 240 2.0 7.0 0.00 0.09 0.00 98 1017.8
20260502115443 35 232 1.0 4.0 0.00 0.09 0.00 99 1017.7
20260502114623 35 227 1.0 3.0 0.00 0.09 0.00 99 1017.8
20260502113802 34 230 1.0 3.0 0.00 0.09 0.00 99 1017.7
20260502112942 33 103 0.0 3.0 0.00 0.09 0.00 99 1017.7
20260502112122 32 81 1.0 3.0 0.00 0.09 0.00 99 1017.8
20260502111302 32 76 1.0 2.0 0.00 0.09 0.00 99 1017.7
20260502110442 31 107 0.0 2.0 0.00 0.09 0.00 99 1017.6
20260502105622 32 114 0.0 2.0 0.00 0.09 0.00 99 1017.4
20260502104801 31 79 1.0 3.0 0.00 0.09 0.00 99 1017.6
20260502103941 31 75 1.0 3.0 0.00 0.09 0.00 99 1017.5
20260502103121 31 83 1.0 2.0 0.00 0.09 0.00 99 1017.7
20260502102301 31 93 1.0 3.0 0.00 0.09 0.00 99 1017.6
20260502101440 31 94 1.0 4.0 0.00 0.09 0.00 99 1017.6
20260502100620 31 88 1.0 4.0 0.00 0.09 0.00 99 1017.4
20260502090758 33 67 1.0 3.0 0.00 0.09 0.00 99 1017.6
20260502071116 34 65 1.0 3.0 0.00 0.09 0.00 98 1017.6
20260502070256 35 65 0.0 3.0 0.00 0.09 0.00 98 1017.4
20260502065436 35 70 0.0 2.0 0.00 0.09 0.00 98 1017.4
20260502064615 35 84 1.0 2.0 0.00 0.09 0.00 98 1017.5
20260502063755 34 72 1.0 3.0 0.00 0.09 0.00 98 1017.6
20260502062935 35 81 1.0 2.0 0.00 0.09 0.00 98 1017.6
20260502062115 35 83 1.0 3.0 0.00 0.09 0.00 98 1017.8
20260502061254 35 103 1.0 3.0 0.00 0.09 0.00 98 1017.5
20260502060434 36 91 0.0 2.0 0.00 0.09 0.00 98 1017.6
20260502055614 36 84 1.0 3.0 0.00 0.09 0.00 98 1017.6
20260502054753 35 89 1.0 2.0 0.00 0.09 0.00 98 1017.8
20260502053933 36 87 1.0 2.0 0.00 0.09 0.00 98 1017.9
20260502053113 36 108 0.0 2.0 0.00 0.09 0.00 98 1017.9
20260502052253 36 91 1.0 3.0 0.00 0.09 0.00 98 1017.9
20260502051432 36 88 1.0 3.0 0.00 0.09 0.00 98 1017.8
20260502050612 36 64 0.0 2.0 0.00 0.09 0.00 98 1017.9
20260502045752 36 85 0.0 2.0 0.00 0.09 0.00 98 1017.8
20260502044932 36 73 0.0 2.0 0.00 0.09 0.00 98 1017.6
20260502044111 36 90 1.0 2.0 0.00 0.09 0.00 97 1017.7
20260502043251 37 87 1.0 3.0 0.00 0.09 0.00 97 1017.5
20260502042431 37 82 1.0 3.0 0.00 0.09 0.00 97 1017.8
20260502041611 37 99 1.0 3.0 0.00 0.09 0.00 97 1017.8
20260502040751 38 114 1.0 3.0 0.00 0.09 0.00 97 1017.7
20260502035930 37 102 1.0 3.0 0.00 0.09 0.09 97 1017.7
20260502035110 37 91 1.0 2.0 0.00 0.09 0.09 97 1017.7
20260502034250 38 103 1.0 2.0 0.00 0.09 0.09 97 1017.6
20260502033430 38 107 1.0 2.0 0.00 0.09 0.09 97 1017.6
20260502032610 38 103 1.0 3.0 0.00 0.09 0.09 97 1017.6
20260502031749 39 105 2.0 4.0 0.00 0.09 0.09 97 1017.8
20260502030929 38 111 1.0 3.0 0.00 0.09 0.09 96 1017.8
20260502030109 39 109 1.0 3.0 0.00 0.09 0.09 96 1017.9
20260502025249 39 102 1.0 2.0 0.00 0.09 0.09 96 1017.9
20260502024428 39 118 1.0 2.0 0.00 0.09 0.09 96 1017.8
20260502023609 39 86 1.0 2.0 0.00 0.09 0.09 96 1017.8
20260502022748 40 98 1.0 2.0 0.00 0.09 0.09 95 1017.7
20260502021928 40 101 1.0 2.0 0.00 0.09 0.09 95 1017.6
20260502021107 40 107 0.0 2.0 0.00 0.09 0.09 95 1017.3
20260502020247 40 62 1.0 3.0 0.00 0.09 0.09 94 1017.2
20260502015427 41 69 1.0 3.0 0.01 0.09 0.09 93 1017.3